Retour au catalogue

STARLINK-37666

ActifCommunicationsSSO
NORAD 69046·PAYLOAD·🇺🇸 United States

Lancé May 6, 2026 depuis Vandenberg Space Force Base

Loading…

Prochains Passages (prochaines 24 heures)

TLE

FraisSource: CelesTrak SupGP

Époque: Sep 14, 2026, 23:33 UTC

1 69046C 26101X   26257.98173611  .00091341  00000+0  28356-2 0  2573
2 69046  97.2848 111.6155 0001721  92.6708  54.4807 15.33391030    15

Suivez STARLINK-37666 en temps réel avec AllMySat

Download on the App Store